KBRO

Brownsville/South Padre Island International Airport

Airport
ICAO code
KBRO
Summary
ICAO Region
NAM
ICAO Territory
Location

Brownsville/South Padre Island International Airport,

Coordinates
25° 54' 23" N , 97° 25' 55" W
KCC
Airport LOS
Parallel Runway Operation
Metar
Observation
KBRO 301953Z 14013G20KT 10SM SCT026 BKN033 BKN039 27/21 A2999 RMK AO2 SLP155 T02670206
Station
Brownsville, Brownsville / South Padre Island International Airport
Date/Time
2023-01-30 20:53:00
Wind direction
140°
Wind speed
13 kts
Lowest cloud amount
scattered clouds
Temperature
26.7°C
Dew point
20.6°C
Humidity
69%
Weather condition
n/a

Description

Brownsville/South Padre Island International Airport is a public use airport located 7 km east of the central business district of Brownsville, a city in Cameron County, Texas.

Climatology

Humid “subtropical” climate (Köppen climate classification Cfa) - characterized by hot, humid summers and mild winters. Most rainfall occurs during summer and is often associated with thunderstorms and occasional tropical storms (hurricanes).

Airport map

Aerial View

SKYbrary Partners:

Safety knowledge contributed by: